Regional Weather Roundup
Issued by NWS

Home | Current Version | Previous Version | Text Only | Print | Product List | Glossary Off
Versions: 1 2 3 4 5 6 7 8 9 10 11 12 13 14 15 16 17 18 19 20 21 22 23 24 25 26 27 28 29 30 31 32 33 34 35 36 37 38 39 40 41 42 43 44 45 46 47 48 49 50

000
ASUS45 KSLC 010310
RWRUT

UTAH REGIONAL WEATHER ROUNDUP
NATIONAL WEATHER SERVICE SALT LAKE CITY UT
900 PM MDT TUE JUN 30 2015

UTZ001>011-023>025-010400-

NORTHERN UTAH

CITY           SKY/WX    TMP DP  RH WIND       PRES   REMARKS
BRIGHAM CITY   CLOUDY    86  50  29 NW10G17   30.04R
HILL AFB       NOT AVBL
LOGAN          CLEAR     84  61  45 W6        30.02R
OGDEN          MOCLDY    88  53  30 NW17      30.01R
PROVO AIRPORT  MOCLDY    88  64  45 VRB5      30.02R
SALT LAKE CITY MOCLDY    93  52  24 N7        29.98R HX  90
VERNAL         CLOUDY    75  51  43 W5        30.10R
WENDOVER       CLOUDY    84  50  30 NW18G26   30.06S
HEBER CITY     CLOUDY    82  45  26 CALM      30.12R
WEST JORDAN    CLEAR     90  48  24 W6        30.03R

$$

UTZ012>022-026-027-010400-

SOUTHERN/CENTRAL UTAH

CITY           SKY/WX    TMP DP  RH WIND       PRES   REMARKS
BLANDING       MOCLDY    80  48  33 N6        30.15S
BRYCE CANYON   CLOUDY    67  52  58 N7        30.31R
CEDAR CITY     CLOUDY    83  45  26 E3        30.11R
DELTA          CLOUDY    80  51  35 N30G39    30.05R
HANKSVILLE     CLOUDY    90  43  19 NE3       30.00S
MILFORD        CLOUDY    88  45  22 NE9G18    30.05R
MOAB/CYNLANDS  CLEAR     90  43  19 W10       29.97R
PRICE          CLOUDY    81  48  31 N10       30.15R
ST GEORGE      CLOUDY   102  46  15 W9        29.85R HX  98
KANAB          PTCLDY    84  48  28 NW7       30.08S

$$

REGIONAL REPORTS     COLORADO/ARIZONA

CITY           SKY/WX    TMP DP  RH WIND       PRES   REMARKS
CRAIG, CO      CLOUDY    73  48  41 CALM      30.19S
GRAND JUNCTION CLOUDY    84  47  27 VRB3      30.04R
RIFLE          CLOUDY    85  40  20 NW8       30.10R
MONTROSE       CLOUDY    83  44  25 W5        30.13R
CORTEZ         CLEAR     79  52  38 CALM      30.08R
PAGE, AZ       PTCLDY    97  42  15 NW7       29.93R HX  93
GRAND CANYON   CLOUDY    69  54  58 NW10G22   30.18F THUNDER
KINGMAN        CLOUDY    93  55  27 SW18      29.92S HX  91
FLAGSTAFF      CLOUDY    70  56  61 W3        30.25R

$$

REGIONAL REPORTS    NEVADA/IDAHO/WYOMING

CITY           SKY/WX    TMP DP  RH WIND       PRES   REMARKS
LAS VEGAS, NV  CLOUDY   109  45  11 S7        29.72S HX 104
ELY            CLOUDY    72  52  49 N13       30.25R
ELKO           CLOUDY    78  51  38 SW15G28   30.10S
POCATELLO, ID  CLEAR     84  54  35 E3        30.02S
BURLEY         CLOUDY    83  58  42 SW10      29.98S
EVANSTON, WY   PTCLDY    77  46  33 NW9       30.26R
ROCK SPRINGS   NOT AVBL
KEMMERER       PTCLDY   N/A N/A N/A NW8       30.28S

$$



USA.gov is the U.S. government's official web portal to all federal, state and local government web resources and services.